This is the latest recevied weather packets stored in our database for station/object KC5AV. If no packets are shown the sender has not sent any weather packets the latest 10 day(s).
| Time | Temp. | Humidity | Pressure | Rain* | Wind** | Luminosity | Snow |
|---|---|---|---|---|---|---|---|
| 1777925495 | 26.67° C | 46% | 1013.1 hPa | 0 mm | - | 699 W/m² | - |
| 1777925192 | 26.67° C | 46% | 1013.3 hPa | 0 mm | - | 802 W/m² | - |
| 1777924888 | 26.67° C | 44% | 1013.2 hPa | 0 mm | - | 832 W/m² | - |
| 1777924584 | 26.67° C | 46% | 1013.3 hPa | 0 mm | - | 705 W/m² | - |
| 1777924281 | 26.67° C | 45% | 1013.5 hPa | 0 mm | - | 866 W/m² | - |
| 1777923977 | 26.67° C | 46% | 1013.6 hPa | 0 mm | - | 873 W/m² | - |
| 1777923673 | 26.67° C | 43% | 1013.6 hPa | 0 mm | - | 781 W/m² | - |
| 1777923370 | 26.67° C | 45% | 1013.6 hPa | 0 mm | - | 786 W/m² | - |
| 1777923068 | 26.67° C | 45% | 1013.9 hPa | 0 mm | - | 931 W/m² | - |
| 1777922766 | 26.67° C | 43% | 1014 hPa | 0 mm | - | 918 W/m² | - |
| 1777922464 | 26.67° C | 45% | 1014 hPa | 0 mm | - | 950 W/m² | - |
| 1777922162 | 26.67° C | 45% | 1014.1 hPa | 0 mm | - | 819 W/m² | - |
| 1777921858 | 26.67° C | 50% | 1013.9 hPa | 0 mm | - | 893 W/m² | - |
| 1777921554 | 26.11° C | 47% | 1013.8 hPa | 0 mm | - | 835 W/m² | - |
| 1777921250 | 26.11° C | 46% | 1014.3 hPa | 0 mm | - | 918 W/m² | - |
| 1777920948 | 26.67° C | 45% | 1014.3 hPa | 0 mm | - | 740 W/m² | - |
| 1777920644 | 26.67° C | 45% | 1014.1 hPa | 0 mm | - | 705 W/m² | - |
| 1777920339 | 26.67° C | 46% | 1014.3 hPa | 0 mm | - | 893 W/m² | - |
| 1777920035 | 26.11° C | 47% | 1014.4 hPa | 0 mm | - | 868 W/m² | - |
| 1777919732 | 26.11° C | 47% | 1014.7 hPa | 0 mm | - | 872 W/m² | - |
| 1777919430 | 26.11° C | 48% | 1014.6 hPa | 0 mm | - | 833 W/m² | - |
| 1777919127 | 25.56° C | 47% | 1014.8 hPa | 0 mm | - | 842 W/m² | - |
| 1777918824 | 25.56° C | 48% | 1014.7 hPa | 0 mm | - | 873 W/m² | - |
| 1777918521 | 25.56° C | 46% | 1014.8 hPa | 0 mm | - | 632 W/m² | - |
| 1777918220 | 26.11° C | 48% | 1015 hPa | 0 mm | - | 870 W/m² | - |
* Rain latest hour (hover to see other rain measurements)
** Current wind speed in m/s (hover to see current wind gust speed)